N6OIM Weather Reports


Display with metric or nautical units.
time (UTC)temp
F
wind
direction
speed
MPH
gust
MPH
rain 1hr
in
rain 24hr
in
rain mn
in
humidity
%
barometer
mb
20260504034336 63 242 0.0 0.0 0.00 0.00 0.00 63 1011.0
20260504033824 63 307 0.0 0.0 0.00 0.00 0.00 62 1010.9
20260504033317 63 230 0.0 0.0 0.00 0.00 0.00 62 1010.8
20260504032827 63 230 0.0 0.0 0.00 0.00 0.00 61 1010.8
20260504032335 64 231 0.0 0.0 0.00 0.00 0.00 60 1010.8
20260504031824 64 265 0.0 0.0 0.00 0.00 0.00 60 1010.7
20260504031333 64 267 0.0 0.0 0.00 0.00 0.00 59 1010.7
20260504030821 64 189 0.0 0.0 0.00 0.00 0.00 60 1010.7
20260504030330 64 271 0.0 0.0 0.00 0.00 0.00 59 1010.6
20260504025820 64 254 0.0 0.0 0.00 0.00 0.00 59 1010.5
20260504025328 65 265 0.0 0.0 0.00 0.00 0.00 59 1010.4
20260504024822 65 221 0.0 0.0 0.00 0.00 0.00 58 1010.5
20260504024329 65 243 0.0 0.0 0.00 0.00 0.00 58 1010.4
20260504023818 65 209 0.0 0.0 0.00 0.00 0.00 58 1010.3
20260504023325 65 254 0.0 0.0 0.00 0.00 0.00 58 1010.2
20260504022834 65 221 0.0 0.0 0.00 0.00 0.00 57 1010.2
20260504022321 66 221 0.0 0.0 0.00 0.00 0.00 57 1010.2
20260504021829 66 202 0.0 0.0 0.00 0.00 0.00 57 1010.1
20260504021317 66 264 0.0 0.0 0.00 0.00 0.00 56 1010.1
20260504020826 66 258 0.0 0.0 0.00 0.00 0.00 56 1010.0
20260504020319 67 265 0.0 0.0 0.00 0.00 0.00 56 1010.0
20260504015829 67 256 0.0 0.0 0.00 0.00 0.00 55 1010.0
20260504015317 67 249 0.0 0.0 0.00 0.00 0.00 55 1010.1
20260504014827 68 265 0.0 0.0 0.00 0.00 0.00 54 1010.0
20260504014316 68 223 0.0 0.0 0.00 0.00 0.00 54 1009.8
20260504013829 68 238 0.0 0.0 0.00 0.00 0.00 54 1009.7
20260504013336 69 215 0.0 0.0 0.00 0.00 0.00 53 1009.7
20260504012825 69 307 0.0 0.0 0.00 0.00 0.00 52 1009.7
20260504012317 70 278 0.0 0.0 0.00 0.00 0.00 52 1009.6
20260504011825 70 281 0.0 0.0 0.00 0.00 0.00 51 1009.6
20260504011333 70 237 0.0 0.0 0.00 0.00 0.00 51 1009.7
20260504010822 70 218 0.0 0.0 0.00 0.00 0.00 52 1009.7
20260504010329 70 236 0.0 0.0 0.00 0.00 0.00 51 1009.7
20260504005817 70 248 0.0 0.0 0.00 0.00 0.00 52 1009.7
20260504005325 70 225 0.0 0.0 0.00 0.00 0.00 51 1009.6
20260504004834 70 180 0.0 0.0 0.00 0.00 0.00 52 1009.7
20260504004321 70 246 0.0 0.0 0.00 0.00 0.00 51 1009.7
20260504003830 70 254 0.0 0.0 0.00 0.00 0.00 52 1009.7
20260504003323 70 267 0.0 0.0 0.00 0.00 0.00 52 1009.7
20260504002832 70 254 0.0 0.0 0.00 0.00 0.00 51 1009.7
20260504002320 70 236 0.0 0.0 0.00 0.00 0.00 51 1009.6
20260504001829 70 224 0.0 0.0 0.00 0.00 0.00 52 1009.5
20260504001337 70 200 0.0 0.0 0.00 0.00 0.00 53 1009.5
20260504000825 70 237 0.0 0.0 0.00 0.00 0.00 53 1009.5
20260504000317 69 236 0.0 0.0 0.00 0.00 0.00 53 1009.6
20260503235827 69 265 0.0 0.0 0.00 0.00 0.00 53 1009.7
20260503235320 69 265 0.0 0.0 0.00 0.00 0.00 55 1009.8
20260503234829 69 265 0.0 0.0 0.00 0.00 0.00 55 1009.8
20260503234319 69 247 0.0 0.0 0.00 0.00 0.00 55 1009.8
20260503233828 69 247 0.0 0.0 0.00 0.00 0.00 54 1009.9
20260503233316 69 153 0.0 0.0 0.00 0.00 0.00 55 1010.0
20260503232828 69 119 0.0 0.0 0.00 0.00 0.00 55 1010.2
20260503232336 68 138 0.0 0.0 0.00 0.00 0.00 55 1010.1
20260503231825 68 138 0.0 0.0 0.00 0.00 0.00 55 1010.1
20260503231336 68 179 0.0 0.0 0.00 0.00 0.00 56 1010.2
20260503230828 68 160 0.0 0.0 0.00 0.00 0.00 57 1010.1
20260503230337 68 171 0.0 0.0 0.00 0.00 0.00 56 1010.1
20260503225825 68 171 0.0 0.0 0.00 0.00 0.00 56 1010.1
20260503225335 68 169 0.0 0.0 0.00 0.00 0.00 56 1010.1
20260503224822 68 157 0.0 0.0 0.00 0.00 0.00 58 1010.0
20260503224331 68 165 0.0 0.0 0.00 0.00 0.00 58 1010.1
20260503223819 67 157 0.0 0.0 0.00 0.00 0.00 57 1010.1
20260503223327 67 161 0.0 0.0 0.00 0.00 0.00 58 1010.1
20260503222835 67 160 0.0 0.0 0.00 0.00 0.00 59 1010.0
20260503222327 67 160 0.0 0.0 0.00 0.00 0.00 59 1010.1
20260503221819 67 157 0.0 0.0 0.00 0.00 0.00 58 1010.2
20260503221328 67 160 0.0 0.0 0.00 0.00 0.00 58 1010.2
20260503220818 67 221 0.0 0.0 0.00 0.00 0.00 59 1010.1
20260503220326 67 173 0.0 0.0 0.00 0.00 0.00 59 1010.1
20260503215834 67 184 0.0 0.0 0.00 0.00 0.00 58 1010.1
20260503215322 67 263 0.0 0.0 0.00 0.00 0.00 58 1010.2
20260503214830 67 196 0.0 0.0 0.00 0.00 0.00 58 1010.3
20260503214321 67 188 0.0 0.0 0.00 0.00 0.00 57 1010.3
20260503213834 67 242 0.0 0.0 0.00 0.00 0.00 58 1010.3
20260503213323 67 250 0.0 0.0 0.00 0.00 0.00 58 1010.3
20260503212832 67 263 0.0 0.0 0.00 0.00 0.00 58 1010.3
20260503212320 67 236 0.0 0.0 0.00 0.00 0.00 58 1010.2
20260503211830 67 245 0.0 0.0 0.00 0.00 0.00 58 1010.3
20260503211318 67 214 0.0 0.0 0.00 0.00 0.00 58 1010.3
20260503210827 67 209 0.0 0.0 0.00 0.00 0.00 58 1010.3
20260503210334 67 254 0.0 0.0 0.00 0.00 0.00 58 1010.2
20260503205822 67 227 0.0 0.0 0.00 0.00 0.00 58 1010.4
20260503205334 67 267 0.0 0.0 0.00 0.00 0.00 57 1010.4
20260503204822 67 277 0.0 0.0 0.00 0.00 0.00 57 1010.5
20260503204330 67 269 0.0 0.0 0.00 0.00 0.00 57 1010.4
20260503203818 67 276 0.0 0.0 0.00 0.00 0.00 58 1010.5
20260503203324 67 211 0.0 0.0 0.00 0.00 0.00 57 1010.4
20260503202833 67 260 0.0 0.0 0.00 0.00 0.00 57 1010.5
20260503202321 67 223 0.0 0.0 0.00 0.00 0.00 57 1010.6
20260503201829 67 175 0.0 0.0 0.00 0.00 0.00 58 1010.5
20260503201318 66 217 0.0 0.0 0.00 0.00 0.00 57 1010.6
20260503200831 66 215 0.0 0.0 0.00 0.00 0.00 58 1010.6
20260503200320 66 259 0.0 0.0 0.00 0.00 0.00 60 1010.6
20260503195830 66 254 0.0 0.0 0.00 0.00 0.00 59 1010.7
20260503195336 65 210 0.0 0.0 0.00 0.00 0.00 59 1010.8
20260503194825 65 252 0.0 0.0 0.00 0.00 0.00 59 1010.8
20260503194334 65 172 0.0 0.0 0.00 0.00 0.00 58 1010.8
20260503193824 65 246 0.0 0.0 0.00 0.00 0.00 60 1010.8
20260503193333 65 235 0.0 0.0 0.00 0.00 0.00 60 1010.8
20260503192825 65 230 0.0 0.0 0.00 0.00 0.00 60 1010.8
20260503192318 65 137 0.0 0.0 0.00 0.00 0.00 60 1010.9
20260503191827 65 138 0.0 0.0 0.00 0.00 0.00 60 1010.8
20260503191317 65 242 0.0 0.0 0.00 0.00 0.00 60 1011.0
20260503190826 65 135 0.0 0.0 0.00 0.00 0.00 59 1011.1
20260503190334 65 126 0.0 0.0 0.00 0.00 0.00 61 1011.1
20260503185824 65 262 0.0 0.0 0.00 0.00 0.00 61 1011.2
20260503185333 65 211 0.0 0.0 0.00 0.00 0.00 61 1011.2
20260503184821 65 292 0.0 0.0 0.00 0.00 0.00 61 1011.1
20260503184314 65 176 0.0 0.0 0.00 0.00 0.00 63 1011.2
20260503183826 64 213 0.0 0.0 0.00 0.00 0.00 63 1011.3
20260503183314 64 213 0.0 0.0 0.00 0.00 0.00 63 1011.2
20260503182827 64 137 0.0 0.0 0.00 0.00 0.00 64 1011.2
20260503182335 63 203 0.0 0.0 0.00 0.00 0.00 65 1011.1
20260503181825 63 250 0.0 0.0 0.00 0.00 0.00 66 1011.0
20260503181333 62 173 0.0 0.0 0.00 0.00 0.00 66 1011.0
20260503180820 62 290 0.0 0.0 0.00 0.00 0.00 68 1010.8
20260503180329 61 156 0.0 0.0 0.00 0.00 0.00 67 1011.1
20260503175825 61 192 0.0 0.0 0.00 0.00 0.00 67 1011.2
20260503175334 61 180 0.0 0.0 0.00 0.00 0.00 68 1011.1
20260503174823 61 188 0.0 0.0 0.00 0.00 0.00 69 1011.4
20260503174332 61 219 0.0 0.0 0.00 0.00 0.00 69 1011.5
20260503173821 61 148 0.0 0.0 0.00 0.00 0.00 70 1011.2
20260503173329 61 190 0.0 0.0 0.00 0.00 0.00 70 1011.2
20260503172818 61 146 0.0 0.0 0.00 0.00 0.00 69 1011.2
20260503172329 61 156 0.0 0.0 0.00 0.00 0.00 70 1011.1
20260503171817 61 198 0.0 0.0 0.00 0.00 0.00 70 1011.0
20260503171333 60 212 0.0 0.0 0.00 0.00 0.00 71 1011.0
20260503170823 60 144 0.0 0.0 0.00 0.00 0.00 72 1010.9
20260503170331 60 192 0.0 0.0 0.00 0.00 0.00 72 1010.9
20260503150827 56 153 0.0 0.0 0.00 0.00 0.00 81 1010.1
20260503150320 56 163 0.0 0.0 0.00 0.00 0.00 82 1009.9
20260503131325 54 109 0.0 0.0 0.00 0.00 0.00 84 1008.7
20260503130814 54 129 0.0 0.0 0.00 0.00 0.00 84 1008.6
20260503130327 54 114 0.0 0.0 0.00 0.00 0.00 84 1008.5
20260503110320 54 189 0.0 0.0 0.00 0.00 0.00 83 1008.3
20260503090334 56 202 0.0 0.0 0.00 0.00 0.00 80 1008.2
20260503081326 56 202 0.0 0.0 0.00 0.00 0.00 79 1008.8
20260503080835 56 202 0.0 0.0 0.00 0.00 0.00 79 1008.9
20260503080322 56 202 0.0 0.0 0.00 0.00 0.00 79 1008.9
20260503072828 57 202 0.0 0.0 0.00 0.00 0.00 77 1009.1
20260503072335 57 202 0.0 0.0 0.00 0.00 0.00 77 1009.2
20260503071825 57 202 0.0 0.0 0.00 0.00 0.00 76 1009.1
20260503071333 57 202 0.0 0.0 0.00 0.00 0.00 76 1009.2
20260503070825 57 202 0.0 0.0 0.00 0.00 0.00 76 1009.2
20260503070333 57 202 0.0 0.0 0.00 0.00 0.00 75 1009.1
20260503060326 58 202 0.0 0.0 0.00 0.00 0.00 72 1009.4
20260503054836 59 198 0.0 0.0 0.00 0.00 0.00 71 1009.5
20260503054324 59 210 0.0 0.0 0.00 0.00 0.00 71 1009.5
20260503053834 59 209 0.0 0.0 0.00 0.00 0.00 70 1009.5
20260503053321 60 208 0.0 0.0 0.00 0.00 0.00 70 1009.4
20260503052835 60 207 0.0 0.0 0.00 0.00 0.00 69 1009.4
20260503052322 60 175 0.0 0.0 0.00 0.00 0.00 69 1009.4
20260503051831 60 168 0.0 0.0 0.00 0.00 0.00 69 1009.4
20260503051320 61 168 0.0 0.0 0.00 0.00 0.00 69 1009.5
20260503050829 61 194 0.0 0.0 0.00 0.00 0.00 68 1009.5
20260503050318 61 194 0.0 0.0 0.00 0.00 0.00 68 1009.5
20260503045830 61 194 0.0 0.0 0.00 0.00 0.00 68 1009.5
20260503045318 62 197 0.0 0.0 0.00 0.00 0.00 66 1009.4
20260503044826 62 207 0.0 0.0 0.00 0.00 0.00 65 1009.4
20260503044321 62 252 0.0 0.0 0.00 0.00 0.00 67 1009.3
20260503043829 62 252 0.0 0.0 0.00 0.00 0.00 67 1009.3
20260503043320 63 254 0.0 0.0 0.00 0.00 0.00 67 1009.2
20260503042829 63 254 0.0 0.0 0.00 0.00 0.00 67 1009.1
20260503042319 63 254 0.0 0.0 0.00 0.00 0.00 66 1009.0
20260503041828 63 254 0.0 0.0 0.00 0.00 0.00 66 1008.9
20260503041336 63 253 0.0 0.0 0.00 0.00 0.00 66 1008.9
20260503040825 63 253 0.0 0.0 0.00 0.00 0.00 64 1008.9
20260503040321 64 253 0.0 0.0 0.00 0.00 0.00 64 1008.9
20260503035830 64 254 0.0 0.0 0.00 0.00 0.00 64 1008.8
20260503035317 64 253 0.0 0.0 0.00 0.00 0.00 63 1008.8
20260503034826 64 254 0.0 0.0 0.00 0.00 0.00 63 1008.7